Torna al catalogo

STARLINK-5121

AttivoComunicazioniVLEO
NORAD 53993·PAYLOAD·🇺🇸 United States

Lanciato Oct 5, 2022 da Vandenberg Space Force Base

Loading…

Prossimi Passaggi (prossime 24 ore)

TLE

AggiornatoSource: CelesTrak SupGP

Epoca: Sep 15, 2026, 02:01 UTC

1 53993C 22125AF  26258.08451389 -.00015269  00000+0 -95727-3 0  2587
2 53993  53.1585  78.0186 0001400  89.7044  78.2723 15.08852498    15

Traccia STARLINK-5121 in tempo reale con AllMySat

Download on the App Store